STARLINK-30809, 58183

Orbit data source: Space-Track

STARLINK-30809, 58183 is a payload satellite owned by SpaceX/Seattle (US) in LEO that was launched on Mon, 30 Oct 2023 UTC via an FALCON 9 launch vehicle from the Air Force Eastern Test Range (AFETR). Payload-class satellites include a variety of spacecraft equipped with specific instruments for various scientific and technological missions. These include communications satellites like Starlink; space stations such as the ISS; scientific satellites like the Hubble; Earth observation satellites from companies like Planet Labs, Umbra, and HawkEye 360; GPS; miniature CubeSats for education and research; and military/defense satellites.

Loading next visibility...
Identifier
58183, 2023-167J
Orbit
LEO
Country
Flag of USUS
Related business
Manufacturer
SpaceX/Seattle
Mission
Operational Commercial Communications
Bus & Motor
STARLINK V2M, Unknown motor
Mass
730 kg wet, ~700 kg dry
Launch date (UTC)
2023-10-30 (3 years ago)
Launch vehicle
FALCON 9
Launch site
Air Force Eastern Test Range (AFETR)
Object type
Payload
Rocket body
Debris
Shape & HBR
Box + 2 Pan, 17.7 m
Radar Cross Section
33.884 m², Large (>1 m²)

Expand to show TLE details & history
Last TLE update: 2 days ago

TLE from 2 days ago
0 STARLINK-30809
1 58183U 23167J   26171.36386247  .00004830  00000-0  18506-3 0  9998
2 58183  43.0042 283.9042 0001811 257.8493 102.2156 15.27557898146686
Epoch: 2026-06-20T08:43Z
TLE epoch observation values (Epoch: 2026-06-20T08:43:57.717Z)
Latitude
-0.00001°
Longitude
-115.66585°
Altitude
483.154 km
Speed
7.625 km/s
True Right ascension
18h 55m 37s
True Declination
0° 00' 00"
Sunlit
Object was in full shadow at epoch
Visualization orbit readout
Latitude
Unknown
Longitude
Unknown
Altitude
Unknown
Speed
Unknown
Apparent Right ascension
Unknown
Apparent Declination
Unknown
Sunlit
N/A
Visualization observer readout
Local Sidereal Time
21:26:06
Azimuth
Unknown
Elevation
Unknown
Doppler factor
Unknown
Orbital elements
Apogee altitude
486.303 km
Perigee altitude
483.817 km
Semi-major axis
6,863.197 km
Eccentricity
0.00018
Inclination
43.0042°
RAAN
283.9042°
Arg. of periapsis
257.8493°
True anomaly
102.23588°
Mean anomaly
102.2156°
Eccentric anomaly
102.22574°
Mean motion
3.81728 °/min
Orbital period
94.31 mins
BSTAR
0.00018506
Loading maneuver chart data...
Computing Atmospheric mass density...
Loading historical data...
Loading historical data...
Loading historical data...
Loading historical data...
Loading historical data...
Loading historical data...
Loading historical data...

Documentation

Showing up to 5 results
|